Location: Newark
(45.0242°N, 16.0939°E)
Time: 20:16:32
(UTC+00:00)

Envisat - Pass Details

Date: 23 September 2019
Orbit: 764 x 766 km, 98.1° (Epoch: 16 October)

Event Time Altitude Azimuth Distance (km) Brightness Sun altitude
Rises 17:30:55 0° 182° (S) 3,219 6.2 -7.7°
Reaches altitude 10° 17:33:18 10° 189° (S) 2,297 5.5 -8.1°
Maximum altitude 17:38:09 45° 262° (W) 1,033 4.3 -8.9°
Drops below altitude 10° 17:43:03 10° 335° (NNW) 2,313 6.0 -9.8°
Sets 17:45:28 0° 341° (NNW) 3,243 6.7 -10.2°
